Location: Bun Machan
(52.1403°N, 7.3744°W)
Time: 02:49:15
(UTC+00:00)

CZ-2D R/B - Pass Details

Date: 14 July 2020
Orbit: 792 x 845 km, 98.7° (Epoch: 04 August)

Event Time Altitude Azimuth Distance (km) Brightness Sun altitude
Rises 02:18:17 0° 15° (NNE) 3,344 7.2 -12.9°
Reaches altitude 10° 02:20:38 10° 17° (NNE) 2,416 6.0 -12.7°
Maximum altitude 02:26:00 82° 105° (ESE) 837 2.2 -12.4°
Enters shadow 02:30:27 16° 193° (SSW) 2,064 3.6 -12.1°
